Weather History for Williamsburg, VA

Change the Weather History Date:

Sunday, November 10, 2013

  Actual Average Record
Temperature  
Mean Temperature 58 °F -  
Max Temperature 71 °F 65 °F 78 °F (1966)
Min Temperature 46 °F 43 °F 27 °F (1957)
Degree Days  
Heating Degree Days 6    
Growing Degree Days 8 (Base 50)    
Moisture  
Dew Point 35 °F    
Average Humidity 47    
Maximum Humidity 66    
Minimum Humidity 27    
Precipitation  
Precipitation 0.00 in - - ()
Sea Level Pressure  
Sea Level Pressure 30.10 in    
Wind  
Wind Speed 9 mph (WNW)    
Max Wind Speed 18 mph    
Max Gust Speed 25 mph    
Visibility 10 miles    
Events      
Averages and records for this station are not official NWS values.
T = Trace of Precipitation, MM = Missing Value Source: NWS Daily Summary

Daily Weather History Graph

Daily Weather History Graph

Search for Another Location

Airport:

Trip Planner

Search our weather history database for the weather conditions in past years. The results will help you decide how hot, cold, wet, or windy it might be!

Date:

Astronomy

Nov. 10, 2013 Rise Set
Actual Time 6:40 AM EST 5:00 PM EST
Civil Twilight 6:13 AM EST 5:27 PM EST
Nautical Twilight 5:42 AM EST 5:58 PM EST
Astronomical Twilight 5:11 AM EST 6:29 PM EST
Moon 12:55 PM EST (11/10) No Moon Set
Length of Visible Light 11h 14m
Length of Day
10h 19m
First Quarter, 55% of the Moon is Illuminated
Nov 10
First Quarter
Nov 17
Full
Nov 25
Last Quarter
Dec 2
New
Dec 9
First Quarter

Hourly Weather History & Observations

Time (EST) Temp. Windchill Dew Point Humidity Pressure Visibility Wind Dir Wind Speed Gust Speed Precip Events Conditions
12:15 AM 51.8 °F - 33.8 °F 50% 30.13 in 10.0 mi West 9.2 mph - N/A   Clear
12:35 AM 50.0 °F - 33.8 °F 54% 30.13 in 10.0 mi WSW 10.4 mph 18.4 mph N/A   Clear
12:55 AM 48.2 °F - 33.8 °F 58% 30.12 in 10.0 mi WSW 9.2 mph 16.1 mph N/A   Clear
1:15 AM 48.2 °F - 33.8 °F 58% 30.12 in 10.0 mi WSW 9.2 mph - N/A   Clear
1:35 AM 48.2 °F - 33.8 °F 58% 30.12 in 10.0 mi WSW 6.9 mph - N/A   Clear
1:55 AM 48.2 °F - 33.8 °F 58% 30.12 in 10.0 mi WSW 8.1 mph - N/A   Clear
2:15 AM 48.2 °F - 33.8 °F 58% 30.11 in 10.0 mi WSW 5.8 mph - N/A   Clear
2:35 AM 48.2 °F - 33.8 °F 58% 30.11 in 10.0 mi WSW 6.9 mph - N/A   Clear
2:55 AM 48.2 °F - 33.8 °F 58% 30.10 in 10.0 mi West 10.4 mph - N/A   Clear
3:15 AM 50.0 °F - 33.8 °F 54% 30.10 in 10.0 mi West 8.1 mph - N/A   Clear
3:35 AM 50.0 °F - 35.6 °F 58% 30.10 in 10.0 mi West 11.5 mph 20.7 mph N/A   Clear
3:55 AM 50.0 °F - 35.6 °F 58% 30.10 in 10.0 mi West 13.8 mph 20.7 mph N/A   Clear
4:15 AM 48.2 °F - 35.6 °F 62% 30.10 in 10.0 mi West 9.2 mph 16.1 mph N/A   Clear
4:35 AM 48.2 °F - 35.6 °F 62% 30.10 in 10.0 mi West 8.1 mph - N/A   Clear
4:55 AM 48.2 °F - 35.6 °F 62% 30.10 in 10.0 mi West 8.1 mph - N/A   Clear
5:15 AM 46.4 °F 42.4 °F 35.6 °F 66% 30.10 in 10.0 mi West 8.1 mph - N/A   Clear
5:35 AM 46.4 °F 42.4 °F 35.6 °F 66% 30.11 in 10.0 mi West 8.1 mph - N/A   Clear
5:55 AM 46.4 °F 42.9 °F 35.6 °F 66% 30.11 in 10.0 mi West 6.9 mph - N/A   Clear
6:15 AM 46.4 °F 43.5 °F 35.6 °F 66% 30.11 in 10.0 mi West 5.8 mph - N/A   Clear
6:35 AM 46.4 °F 41.9 °F 35.6 °F 66% 30.11 in 10.0 mi West 9.2 mph - N/A   Clear
6:55 AM 48.2 °F - 33.8 °F 58% 30.11 in 10.0 mi West 8.1 mph - N/A   Clear
7:15 AM 48.2 °F - 33.8 °F 58% 30.12 in 10.0 mi West 5.8 mph - N/A   Clear
7:35 AM 48.2 °F - 35.6 °F 62% 30.11 in 10.0 mi West 4.6 mph - N/A   Clear
7:55 AM 48.2 °F - 35.6 °F 62% 30.12 in 10.0 mi West 5.8 mph - N/A   Clear
8:15 AM 51.8 °F - 35.6 °F 54% 30.12 in 10.0 mi West 8.1 mph - N/A   Clear
8:35 AM 51.8 °F - 35.6 °F 54% 30.11 in 10.0 mi West 8.1 mph - N/A   Clear
8:55 AM 53.6 °F - 35.6 °F 51% 30.11 in 10.0 mi West 6.9 mph - N/A   Clear
9:15 AM 57.2 °F - 37.4 °F 48% 30.10 in 10.0 mi West 10.4 mph - N/A   Clear
9:35 AM 60.8 °F - 37.4 °F 42% 30.10 in 10.0 mi West 12.7 mph 18.4 mph N/A   Clear
9:55 AM 62.6 °F - 37.4 °F 39% 30.09 in 10.0 mi West 8.1 mph - N/A   Clear
10:15 AM 62.6 °F - 37.4 °F 39% 30.08 in 10.0 mi West 11.5 mph 18.4 mph N/A   Clear
10:35 AM 64.4 °F - 39.2 °F 40% 30.07 in 10.0 mi West 10.4 mph 20.7 mph N/A   Clear
10:55 AM 64.4 °F - 39.2 °F 40% 30.07 in 10.0 mi West 13.8 mph 20.7 mph N/A   Clear
11:15 AM 66.2 °F - 39.2 °F 37% 30.06 in 10.0 mi West 12.7 mph 17.3 mph N/A   Clear
11:35 AM 68.0 °F - 39.2 °F 35% 30.04 in 10.0 mi West 13.8 mph 24.2 mph N/A   Clear
11:55 AM 68.0 °F - 37.4 °F 33% 30.03 in 10.0 mi West 18.4 mph 25.3 mph N/A   Clear
12:15 PM 69.8 °F - 37.4 °F 31% 30.02 in 10.0 mi West 17.3 mph 23.0 mph N/A   Clear
12:35 PM 69.8 °F - 37.4 °F 31% 30.01 in 10.0 mi WNW 18.4 mph - N/A   Clear
12:55 PM 69.8 °F - 37.4 °F 31% 30.00 in 10.0 mi West 17.3 mph 23.0 mph N/A   Clear
1:15 PM 69.8 °F - 37.4 °F 31% 30.00 in 10.0 mi West 10.4 mph 24.2 mph N/A   Clear
1:35 PM 71.6 °F - 37.4 °F 29% 30.00 in 10.0 mi West 15.0 mph 23.0 mph N/A   Clear
1:55 PM 71.6 °F - 37.4 °F 29% 30.00 in 10.0 mi West 13.8 mph 21.9 mph N/A   Clear
2:15 PM 71.6 °F - 35.6 °F 27% 30.00 in 10.0 mi West 13.8 mph 24.2 mph N/A   Clear
2:35 PM 69.8 °F - 35.6 °F 28% 30.00 in 10.0 mi WNW 16.1 mph 25.3 mph N/A   Clear
2:55 PM 69.8 °F - 35.6 °F 28% 30.00 in 10.0 mi West 16.1 mph 23.0 mph N/A   Clear
3:15 PM 69.8 °F - 35.6 °F 28% 30.00 in 10.0 mi West 15.0 mph 21.9 mph N/A   Clear
3:35 PM 69.8 °F - 37.4 °F 31% 30.00 in 10.0 mi WNW 10.4 mph 23.0 mph N/A   Clear
3:55 PM 69.8 °F - 37.4 °F 31% 30.01 in 10.0 mi West 6.9 mph - N/A   Clear
4:15 PM 68.0 °F - 37.4 °F 33% 30.02 in 10.0 mi Calm Calm - N/A   Clear
4:35 PM 66.2 °F - 37.4 °F 35% 30.03 in 10.0 mi WNW 6.9 mph - N/A   Clear
4:55 PM 64.4 °F - 35.6 °F 34% 30.04 in 10.0 mi WNW 8.1 mph - N/A   Clear
5:15 PM 62.6 °F - 35.6 °F 37% 30.05 in 10.0 mi WNW 6.9 mph - N/A   Clear
5:35 PM 59.0 °F - 35.6 °F 42% 30.06 in 10.0 mi West 3.5 mph - N/A   Clear
5:55 PM 57.2 °F - 37.4 °F 48% 30.06 in 10.0 mi WNW 3.5 mph - N/A   Clear
6:15 PM 53.6 °F - 37.4 °F 54% 30.07 in 10.0 mi West 4.6 mph - N/A   Clear
6:35 PM 51.8 °F - 37.4 °F 58% 30.10 in 10.0 mi NNE 10.4 mph - N/A   Clear
6:55 PM 55.4 °F - 35.6 °F 47% 30.12 in 10.0 mi North 8.1 mph - N/A   Clear
7:15 PM 57.2 °F - 35.6 °F 44% 30.13 in 10.0 mi North 9.2 mph 19.6 mph N/A   Clear
7:35 PM 55.4 °F - 33.8 °F 44% 30.15 in 10.0 mi NNE 10.4 mph 19.6 mph N/A   Clear
7:55 PM 55.4 °F - 33.8 °F 44% 30.16 in 10.0 mi North 5.8 mph 18.4 mph N/A   Clear
8:15 PM 53.6 °F - 32.0 °F 44% 30.18 in 10.0 mi North 9.2 mph 21.9 mph N/A   Clear
8:35 PM 53.6 °F - 32.0 °F 44% 30.19 in 10.0 mi North 9.2 mph 16.1 mph N/A   Clear
8:55 PM 51.8 °F - 32.0 °F 47% 30.20 in 10.0 mi North 10.4 mph - N/A   Clear
9:15 PM 51.8 °F - 30.2 °F 44% 30.21 in 10.0 mi North 8.1 mph 21.9 mph N/A   Clear
9:35 PM 51.8 °F - 30.2 °F 44% 30.23 in 10.0 mi North 11.5 mph 16.1 mph N/A   Clear
9:55 PM 50.0 °F - 30.2 °F 47% 30.24 in 10.0 mi North 6.9 mph 16.1 mph N/A   Clear
10:15 PM 50.0 °F - 30.2 °F 47% 30.25 in 10.0 mi North 9.2 mph 19.6 mph N/A   Clear
10:35 PM 48.2 °F - 28.4 °F 46% 30.25 in 10.0 mi NNE 4.6 mph 16.1 mph N/A   Clear
10:55 PM 48.2 °F - 28.4 °F 46% 30.25 in 10.0 mi North 5.8 mph - N/A   Clear
11:15 PM 48.2 °F - 28.4 °F 46% 30.25 in 10.0 mi North 9.2 mph - N/A   Clear
11:35 PM 46.4 °F 43.5 °F 28.4 °F 50% 30.26 in 10.0 mi NNW 5.8 mph - N/A   Clear
11:55 PM 46.4 °F 42.9 °F 28.4 °F 50% 30.26 in 10.0 mi North 6.9 mph - N/A   Clear